User: anonymous   Login
Location: Albuquerque Trailhead
(34.7934°N, 106.3736°W)
Time: 23:23:46
(UTC+00:00)
Language:

USA 245 - Orbit

View from above orbital plane
View from above orbital plane
View from above satellite
View from above satellite

Ground track
Ground track

The orbit data is extracted from the following two-line orbital elements,

1 39232U 13043A   21261.81880602 0.00008500  00000-0  86946-4 0    08
2 39232  97.8839 323.4096 0536398 343.6884  16.3114 14.76016776    03
Epoch (UTC): 18 September 2021 19:39:04
Eccentricity: 0.0536398
inclination: 97.8839°
perigee height: 265 km
apogee height: 1018 km
right ascension of ascending node: 323.4096°
argument of perigee: 343.6884°
revolutions per day: 14.76016776
mean anomaly at epoch: 16.3114°
orbit number at epoch: 0

The dashed part of the orbit path shows where the satellite is in the earth's shadow,  

DLR